TimeEDT,TemperatureF,Dew PointF,Humidity,Sea Level PressureIn,VisibilityMPH,Wind Direction,Wind SpeedMPH,Gust SpeedMPH,PrecipitationIn,Events,Conditions,WindDirDegrees,DateUTC
12:53 AM,64.0,62.1,93,30.14,10.0,Calm,Calm,-,N/A,,Overcast,0,2013-07-03 04:53:00
1:01 AM,64.4,62.6,94,30.17,10.0,ENE,4.6,-,N/A,,Overcast,60,2013-07-03 05:01:00
1:53 AM,64.0,62.1,93,30.13,10.0,NE,3.5,-,N/A,,Overcast,50,2013-07-03 05:53:00
2:53 AM,63.0,61.0,93,30.13,10.0,NE,5.8,-,N/A,,Overcast,40,2013-07-03 06:53:00
3:00 AM,62.6,60.8,94,30.15,10.0,ENE,4.6,-,N/A,,Overcast,60,2013-07-03 07:00:00
3:15 AM,64.4,60.8,88,30.15,10.0,Calm,Calm,-,N/A,,Overcast,0,2013-07-03 07:15:00
3:53 AM,64.0,62.1,93,30.13,10.0,Calm,Calm,-,N/A,,Overcast,0,2013-07-03 07:53:00
4:53 AM,64.0,62.1,93,30.12,10.0,Calm,Calm,-,N/A,,Overcast,0,2013-07-03 08:53:00
5:02 AM,64.4,62.6,94,30.15,10.0,Calm,Calm,-,N/A,,Overcast,0,2013-07-03 09:02:00
5:51 AM,64.4,62.6,94,30.16,10.0,Calm,Calm,-,N/A,,Overcast,0,2013-07-03 09:51:00
5:53 AM,64.0,63.0,96,30.14,10.0,Calm,Calm,-,N/A,,Overcast,0,2013-07-03 09:53:00
6:53 AM,64.9,63.0,93,30.15,1.8,Calm,Calm,-,0.07,Rain,Rain,0,2013-07-03 10:53:00
7:01 AM,64.4,64.4,100,30.17,2.5,Calm,Calm,-,0.01,Rain,Light Rain,0,2013-07-03 11:01:00
7:11 AM,64.4,64.4,100,30.18,1.0,SW,3.5,-,0.07,Rain,Heavy Rain,220,2013-07-03 11:11:00
7:15 AM,64.4,64.4,100,30.18,0.8,Calm,Calm,-,0.11,Rain,Heavy Rain,0,2013-07-03 11:15:00
7:22 AM,64.4,64.4,100,30.18,1.2,Calm,Calm,-,0.13,Rain,Rain,0,2013-07-03 11:22:00
7:47 AM,66.2,64.4,94,30.18,3.0,Calm,Calm,-,0.21,Rain,Light Rain,0,2013-07-03 11:47:00
7:48 AM,66.0,64.0,93,30.17,3.0,Calm,Calm,-,0.21,Rain,Light Rain,0,2013-07-03 11:48:00
8:53 AM,68.0,66.0,93,30.16,10.0,Calm,Calm,-,0.01,,Overcast,0,2013-07-03 12:53:00
9:21 AM,69.8,66.2,88,30.18,10.0,Calm,Calm,-,N/A,,Overcast,0,2013-07-03 13:21:00
9:41 AM,71.6,68.0,88,30.18,10.0,Calm,Calm,-,N/A,,Scattered Clouds,0,2013-07-03 13:41:00
9:53 AM,73.0,69.1,87,30.16,10.0,Calm,Calm,-,N/A,,Scattered Clouds,0,2013-07-03 13:53:00
10:53 AM,79.0,72.0,79,30.15,10.0,SSW,8.1,-,N/A,,Mostly Cloudy,200,2013-07-03 14:53:00
11:18 AM,80.6,71.6,74,30.17,10.0,SW,8.1,-,N/A,,Mostly Cloudy,220,2013-07-03 15:18:00
11:43 AM,80.6,71.6,74,30.18,10.0,SSW,10.4,-,N/A,,Overcast,210,2013-07-03 15:43:00
11:53 AM,81.0,70.0,69,30.15,10.0,SW,6.9,-,N/A,,Overcast,230,2013-07-03 15:53:00
12:53 PM,82.9,69.1,63,30.14,10.0,West,3.5,-,N/A,,Overcast,260,2013-07-03 16:53:00
1:53 PM,84.9,69.1,59,30.12,10.0,SSW,8.1,-,N/A,,Mostly Cloudy,200,2013-07-03 17:53:00
2:53 PM,87.1,68.0,53,30.10,10.0,WSW,6.9,-,N/A,,Scattered Clouds,250,2013-07-03 18:53:00
3:53 PM,88.0,69.1,53,30.09,10.0,SSW,6.9,-,N/A,,Scattered Clouds,210,2013-07-03 19:53:00
4:53 PM,87.1,69.1,55,30.09,10.0,SW,8.1,-,N/A,,Partly Cloudy,220,2013-07-03 20:53:00
5:53 PM,86.0,69.1,57,30.07,10.0,South,6.9,-,N/A,,Clear,190,2013-07-03 21:53:00
6:53 PM,84.9,71.1,63,30.07,10.0,South,4.6,-,N/A,,Clear,190,2013-07-03 22:53:00
7:53 PM,80.1,73.0,79,30.09,10.0,Calm,Calm,-,N/A,,Clear,0,2013-07-03 23:53:00
8:53 PM,75.0,72.0,90,30.11,10.0,Calm,Calm,-,N/A,,Mostly Cloudy,0,2013-07-04 00:53:00
9:53 PM,73.0,70.0,90,30.13,10.0,Calm,Calm,-,N/A,,Clear,0,2013-07-04 01:53:00
10:53 PM,72.0,70.0,93,30.13,10.0,Calm,Calm,-,N/A,,Clear,0,2013-07-04 02:53:00
11:46 PM,69.8,69.8,100,30.17,2.0,Calm,Calm,-,N/A,,Clear,0,2013-07-04 03:46:00
11:53 PM,70.0,68.0,93,30.14,5.0,Calm,Calm,-,N/A,,Clear,0,2013-07-04 03:53:00